Vorticity
nan nan nan nan nan nan nan nan nan nan nan nan nan nan nan nan nan nan nan nan nan nan nan nan nan nan nan nan nan nan nan nan nan nan nan nan nan nan nan nan nan nan nan nan nan nan nan
nan 7 7 6 8 8 7 6 5 5 4 5 5 6 6 7 6 6 6 6 5 6 7 7 7 11 10 1 1 2 3 11 8 7 8 6 2 4 11 11 7 8 7 7 8 10 nan
nan 6 6 6 6 6 6 5 6 6 6 6 6 6 6 6 6 5 5 6 6 5 7 8 11 12 14 6 1 4 8 10 9 12 11 11 9 4 6 8 8 8 8 12 13 9 nan
nan 6 6 7 7 6 6 6 6 5 6 6 6 6 6 5 5 6 7 7 5 6 9 11 14 12 5 14 10 11 6 7 12 13 10 9 17 16 4 2 15 13 10 13 9 7 nan
nan 6 7 6 6 6 6 6 6 7 6 6 6 6 6 6 6 5 7 6 10 17 13 13 16 5 1 8 -2 0 10 7 8 14 17 11 10 15 18 14 10 11 15 8 6 15 nan
nan 6 7 6 6 7 6 5 5 6 6 6 6 6 6 6 6 5 11 21 27 25 18 11 -2 5 2 -15 4 9 9 8 7 5 9 15 13 8 10 14 12 8 -0 6 12 11 nan
nan 8 7 7 6 6 7 5 5 5 6 7 6 6 5 6 8 9 12 25 28 11 6 9 0 2 4 7 0 4 14 17 14 9 4 17 19 13 5 1 2 4 9 6 8 4 nan
nan 7 6 6 7 6 6 6 6 7 6 6 5 5 6 6 6 15 16 14 12 9 4 14 21 16 12 2 0 10 18 23 14 10 5 11 21 10 6 8 5 7 8 5 4 16 nan
nan 8 7 6 7 7 6 7 7 6 6 5 5 6 5 5 15 18 12 4 5 14 16 22 22 13 10 5 7 8 21 26 23 16 4 8 20 13 11 7 9 9 7 9 1 0 nan
nan 7 7 7 7 7 6 6 6 5 6 6 7 7 6 14 14 11 9 3 9 12 13 14 9 10 -1 10 9 13 23 24 22 16 15 15 13 21 13 7 8 11 11 5 11 1 nan
nan 6 7 6 7 7 6 5 6 6 5 6 8 7 8 12 13 7 3 7 13 6 6 2 9 -1 3 10 16 23 16 10 6 2 4 7 18 26 11 13 6 7 19 20 9 7 nan
nan 6 6 6 8 7 6 6 7 6 5 7 7 5 13 17 8 2 5 11 12 7 3 -3 -3 2 8 13 15 12 19 16 11 7 7 4 14 23 21 17 14 11 11 18 12 9 nan
nan 6 7 8 6 7 7 7 7 6 6 7 7 9 11 8 8 10 12 13 7 4 1 2 3 13 11 10 8 8 22 31 12 -2 3 16 20 16 27 26 16 13 4 2 10 11 nan
nan 7 9 7 5 6 7 6 6 6 6 7 7 16 15 7 4 10 11 11 5 2 7 7 9 16 9 7 9 7 22 35 22 8 2 8 13 15 20 16 17 8 -0 -1 9 7 nan
nan 8 9 8 7 6 6 5 5 6 6 8 17 19 13 10 5 9 13 6 6 5 5 8 12 13 4 11 13 12 9 6 11 15 20 21 13 11 13 24 16 8 4 -4 1 9 nan
nan 6 8 9 6 6 6 6 6 6 5 11 20 14 14 5 9 9 11 9 3 6 7 9 12 5 6 7 11 9 10 4 5 7 15 15 21 14 8 20 8 8 6 2 1 7 nan
nan 9 8 7 8 8 7 6 6 6 7 12 16 10 8 8 11 12 7 8 7 7 9 8 6 6 7 9 12 12 12 7 1 11 14 17 14 16 21 2 8 9 9 5 5 2 nan
nan 9 8 8 7 9 7 6 7 7 12 15 12 12 8 11 11 9 9 8 9 7 9 10 6 7 6 12 14 6 6 12 11 11 13 17 16 11 12 13 13 8 10 4 5 8 nan
nan 7 6 8 8 7 6 5 6 8 11 16 14 11 10 8 10 9 11 10 6 8 8 9 8 7 6 13 8 3 6 9 7 12 13 12 11 11 12 21 24 8 6 8 2 4 nan
nan 6 8 7 6 7 6 5 5 9 12 13 11 9 13 12 6 5 6 9 10 11 7 6 7 5 9 7 15 9 -1 4 10 14 13 13 5 10 8 3 11 26 23 6 3 8 nan
nan 7 9 9 8 8 6 4 6 9 14 11 11 9 9 11 5 10 10 8 10 5 10 9 11 2 5 8 11 4 5 5 12 5 5 16 14 5 5 8 10 11 12 24 16 7 nan
nan 7 9 10 9 6 6 4 5 12 14 12 8 11 7 8 9 9 11 9 9 5 6 10 5 4 8 9 5 3 6 7 8 5 4 12 11 5 20 27 13 3 3 5 12 19 nan
nan 9 9 8 7 5 6 5 5 13 11 8 9 11 10 11 8 7 5 8 6 11 6 4 6 8 10 8 7 14 14 13 10 7 8 11 8 12 10 7 15 17 19 18 14 14 nan
nan 9 8 10 6 5 6 6 6 13 12 6 10 9 12 10 9 5 4 8 9 9 11 11 10 10 7 7 16 20 23 21 21 18 10 6 7 12 9 10 5 3 5 16 16 12 nan
nan 10 11 8 7 7 6 5 6 11 14 10 9 11 10 9 11 9 8 7 9 12 12 12 12 11 8 15 17 14 20 15 18 21 11 6 6 9 7 13 3 -4 10 13 9 0 nan
nan 10 11 9 6 8 9 6 6 8 15 13 7 11 11 11 5 7 14 10 10 12 12 9 6 12 15 16 10 9 8 10 12 6 13 22 15 3 6 11 10 -4 7 12 13 1 nan
nan 9 9 10 9 8 9 7 6 8 12 10 10 10 10 11 4 3 7 6 8 11 12 3 7 17 17 13 10 11 9 14 13 12 12 14 15 13 12 13 -1 -3 18 22 15 5 nan
nan 9 8 10 11 9 9 8 6 7 10 8 11 12 9 8 6 6 5 5 5 8 8 8 12 12 11 11 13 11 10 9 6 10 12 14 11 13 15 17 -2 8 25 20 14 8 nan
nan nan nan nan nan nan nan nan nan nan nan nan nan nan nan nan nan nan nan nan nan nan nan nan nan nan nan nan nan nan nan nan nan nan nan nan nan nan nan nan nan nan nan nan nan nan nan
CAPE
11 10 10 6 2 3 10 0 0 0 0 0 0 0 0 0 1 1 1 0 0 0 0 0 0 1 0 0 0 0 0 0 0 0 0 0 0 0 0 0 0 0 0 0 0 0 0
14 11 15 14 7 6 2 0 0 0 0 0 0 0 0 0 0 0 0 0 0 0 0 0 0 0 0 0 0 0 0 0 0 0 0 0 0 0 0 0 0 0 0 0 0 0 0
17 11 12 5 0 1 2 0 0 0 0 0 0 0 0 0 0 0 0 0 0 0 0 0 0 0 0 0 0 0 0 0 0 0 0 0 0 0 0 0 0 0 0 0 0 0 0
15 14 9 4 1 0 0 0 0 0 0 0 0 0 0 0 0 0 0 0 0 0 0 0 0 0 0 0 0 0 0 0 0 0 0 0 0 0 0 0 0 0 0 0 0 0 0
17 12 12 2 2 0 0 0 0 0 0 0 0 0 0 0 0 0 0 0 0 0 0 0 0 2 0 0 0 0 0 0 0 0 0 0 0 0 0 0 0 0 0 0 0 0 0
6 11 13 4 0 0 0 0 0 0 0 0 0 0 0 0 0 0 0 0 0 0 0 0 0 0 0 0 0 0 0 0 0 0 0 2 0 0 0 0 0 0 0 0 0 0 0
23 29 11 5 3 4 4 1 0 0 0 0 0 0 0 0 0 0 0 0 0 0 0 0 0 0 0 0 0 0 0 0 0 0 0 0 17 0 0 0 0 0 0 0 0 0 0
47 27 13 5 3 3 1 0 0 0 0 0 0 0 0 0 0 0 0 0 0 0 0 0 0 0 0 0 0 0 0 0 18 1 0 35 74 0 0 0 0 0 0 2 6 2 0
26 15 10 5 4 2 2 0 0 0 0 0 0 0 0 0 0 0 0 0 0 2 0 0 0 0 0 0 0 0 0 2 23 22 9 31 13 0 0 0 0 0 0 4 0 0 0
26 15 12 7 4 6 0 0 0 0 0 0 0 0 0 0 0 0 0 0 0 8 5 0 0 0 0 0 0 0 0 1 1 0 2 20 52 16 4 0 0 2 0 0 8 2 0
19 10 7 4 4 0 0 0 0 0 0 0 0 0 0 0 0 1 0 0 2 6 1 0 0 0 0 7 0 0 0 0 0 1 2 19 24 50 24 0 0 1 7 20 1 0 0
16 9 5 3 17 2 1 0 0 0 0 0 0 0 0 0 0 3 0 0 6 17 4 0 0 0 0 0 0 2 45 130 0 5 0 0 4 168 9 3 0 9 11 9 0 0 0
18 12 3 8 4 8 0 0 0 0 0 0 0 0 0 0 3 0 0 0 24 22 0 0 0 0 0 0 0 1 26 121 6 31 7 0 163 172 109 11 6 30 25 0 1 3 0
12 13 10 6 16 0 0 0 0 0 0 0 0 0 0 0 1 0 0 17 24 6 0 0 0 1 1 0 0 0 44 121 2 13 8 0 8 21 141 57 22 14 0 0 0 0 0
18 7 2 3 5 0 0 0 0 0 0 0 0 0 8 15 0 0 6 27 0 0 0 0 0 7 6 0 5 8 8 45 70 146 110 82 6 3 94 71 28 10 3 1 0 1 27
18 17 28 14 0 0 0 0 0 0 0 0 0 5 7 0 0 2 36 0 0 0 0 0 11 35 18 4 4 97 20 3 10 18 130 111 239 47 4 70 30 11 2 2 0 0 2
2 21 17 0 0 5 0 0 0 0 0 0 0 6 0 0 0 28 31 0 0 0 0 0 16 24 24 19 21 62 27 0 0 0 80 114 93 111 45 78 42 11 6 1 0 5 0
7 24 3 0 7 0 0 0 0 0 0 0 0 10 0 0 35 26 20 0 0 0 3 6 16 16 25 20 42 15 23 2 2 24 19 32 81 26 44 5 1 1 3 19 36 0 0
18 18 6 9 8 0 0 0 0 0 0 0 6 0 0 0 48 15 1 1 0 1 10 5 15 11 24 17 5 30 23 4 0 21 18 3 57 7 36 64 2 0 0 0 13 13 0
23 5 11 16 9 0 0 0 0 0 0 0 5 40 5 5 0 0 1 3 1 6 2 6 14 34 18 10 10 20 11 5 7 15 70 65 63 37 40 27 24 59 0 0 0 26 0
16 5 18 17 4 1 0 0 0 0 0 0 11 17 0 25 11 0 1 0 3 7 9 5 20 23 7 14 19 20 9 0 0 11 28 24 51 22 26 16 0 62 54 58 0 0 19
27 39 26 20 14 0 0 0 0 0 0 4 0 37 5 9 0 0 1 0 1 4 4 3 12 6 11 18 15 14 17 2 0 0 1 19 24 6 27 0 25 0 2 5 4 4 8
23 32 28 32 17 1 0 0 0 0 0 13 10 8 11 5 8 6 5 0 0 0 0 1 1 0 1 6 2 1 2 0 4 1 7 22 28 11 28 1 4 4 59 25 7 16 34
44 36 27 37 17 0 0 0 0 0 1 27 16 3 9 13 15 5 8 4 5 5 0 0 0 4 0 0 0 0 20 52 62 52 23 26 25 22 21 41 2 151 19 98 107 103 115
53 39 29 29 9 1 0 0 0 0 1 23 75 16 22 26 11 6 11 6 14 13 22 13 10 5 1 0 2 0 125 61 94 58 51 29 27 26 25 32 16 2 0 3 25 44 5
46 39 29 32 33 22 10 0 0 0 0 18 36 51 32 25 18 22 12 12 22 29 16 25 30 7 4 18 20 5 17 76 38 48 4 51 60 39 65 18 20 9 6 0 7 19 3
49 48 36 23 35 22 23 1 0 0 2 19 8 3 36 43 8 23 26 29 20 24 21 30 5 9 22 30 18 34 41 90 41 18 10 84 72 92 72 21 40 7 3 0 50 19 11
60 52 45 30 35 27 30 6 5 4 4 32 63 53 25 24 1 4 12 12 34 39 49 18 5 6 24 26 35 36 36 28 55 61 86 19 56 5 22 51 40 5 0 8 14 10 13
47 54 50 36 40 44 36 16 11 4 10 3 55 38 35 4 6 2 0 0 5 19 39 21 10 4 16 44 51 30 20 38 32 112 123 67 29 26 62 18 17 7 20 10 2 1 1